| time (UTC) | temp F | wind direction | speed MPH | gust MPH | rain 1hr in | rain 24hr in | rain mn in | humidity % | barometer mb |
| 20260510063111 | 48 | 65 | 0.0 | 5.0 | 0.00 | 0.00 | 0.00 | 92 | 1015.2 |
| 20260510060110 | 44 | 67 | 0.0 | 0.0 | 0.00 | 0.00 | 0.00 | 95 | 1015.3 |
| 20260510055110 | 43 | 67 | 0.0 | 0.0 | 0.00 | 0.00 | 0.00 | 95 | 1015.2 |
| 20260510045110 | 37 | 67 | 0.0 | 0.0 | 0.00 | 0.00 | 0.00 | 94 | 1015.0 |
| 20260510040110 | 35 | 67 | 0.0 | 0.0 | 0.00 | 0.00 | 0.00 | 93 | 1014.6 |
| 20260510033109 | 35 | 67 | 0.0 | 0.0 | 0.00 | 0.00 | 0.00 | 93 | 1014.8 |
| 20260510023109 | 35 | 67 | 0.0 | 0.0 | 0.00 | 0.00 | 0.00 | 93 | 1015.5 |
| 20260510022109 | 36 | 67 | 0.0 | 0.0 | 0.00 | 0.00 | 0.00 | 93 | 1015.6 |
| 20260510020109 | 36 | 67 | 0.0 | 0.0 | 0.00 | 0.00 | 0.00 | 93 | 1015.5 |
| 20260510013111 | 36 | 67 | 0.0 | 0.0 | 0.00 | 0.00 | 0.00 | 92 | 1015.8 |
| 20260510012111 | 36 | 67 | 0.0 | 0.0 | 0.00 | 0.00 | 0.00 | 92 | 1016.0 |
| 20260510011110 | 36 | 67 | 0.0 | 0.0 | 0.00 | 0.00 | 0.00 | 92 | 1016.1 |
| 20260510005110 | 36 | 67 | 0.0 | 0.0 | 0.00 | 0.00 | 0.00 | 92 | 1016.3 |
| 20260510004110 | 36 | 67 | 0.0 | 0.0 | 0.00 | 0.00 | 0.00 | 92 | 1016.2 |
| 20260510002110 | 37 | 67 | 0.0 | 1.0 | 0.00 | 0.00 | 0.00 | 92 | 1016.6 |
| 20260510001110 | 37 | 67 | 0.0 | 0.0 | 0.00 | 0.00 | 0.00 | 91 | 1016.6 |
| 20260510000110 | 37 | 67 | 0.0 | 0.0 | 0.00 | 0.00 | 0.00 | 91 | 1016.7 |
| 20260509233110 | 38 | 67 | 0.0 | 0.0 | 0.00 | 0.00 | 0.00 | 91 | 1016.7 |
| 20260509232110 | 38 | 67 | 0.0 | 0.0 | 0.00 | 0.00 | 0.00 | 91 | 1016.7 |
| 20260509231110 | 38 | 67 | 0.0 | 0.0 | 0.00 | 0.00 | 0.00 | 91 | 1016.9 |
| 20260509230110 | 38 | 67 | 0.0 | 0.0 | 0.00 | 0.00 | 0.00 | 90 | 1017.0 |
| 20260509221110 | 40 | 67 | 0.0 | 0.0 | 0.00 | 0.00 | 0.00 | 89 | 1017.4 |
| 20260509214113 | 41 | 67 | 0.0 | 0.0 | 0.00 | 0.00 | 0.00 | 89 | 1017.3 |
| 20260509211113 | 42 | 67 | 0.0 | 0.0 | 0.00 | 0.00 | 0.00 | 88 | 1017.6 |
| 20260509205113 | 42 | 67 | 0.0 | 0.0 | 0.00 | 0.00 | 0.00 | 87 | 1017.7 |
| 20260509202112 | 44 | 67 | 0.0 | 0.0 | 0.00 | 0.00 | 0.00 | 86 | 1017.7 |
| 20260509201112 | 44 | 67 | 0.0 | 0.0 | 0.00 | 0.00 | 0.00 | 85 | 1017.6 |
| 20260509200112 | 45 | 67 | 0.0 | 0.0 | 0.00 | 0.00 | 0.00 | 85 | 1017.4 |
| 20260509191112 | 47 | 67 | 0.0 | 0.0 | 0.00 | 0.00 | 0.00 | 82 | 1017.5 |
| 20260509185112 | 49 | 67 | 0.0 | 0.0 | 0.00 | 0.00 | 0.00 | 82 | 1017.4 |
| 20260509182112 | 50 | 67 | 0.0 | 0.0 | 0.00 | 0.00 | 0.00 | 82 | 1017.5 |
| 20260509173111 | 51 | 68 | 0.0 | 0.0 | 0.00 | 0.00 | 0.00 | 79 | 1017.5 |
| 20260509170111 | 51 | 68 | 0.0 | 4.0 | 0.00 | 0.00 | 0.00 | 78 | 1017.7 |
| 20260509165111 | 51 | 68 | 0.0 | 4.0 | 0.00 | 0.00 | 0.00 | 77 | 1017.7 |
| 20260509161111 | 52 | 68 | 0.0 | 0.0 | 0.00 | 0.00 | 0.00 | 76 | 1017.6 |
| 20260509154111 | 53 | 68 | 0.0 | 1.0 | 0.00 | 0.00 | 0.00 | 74 | 1017.7 |
| 20260509152110 | 53 | 68 | 0.0 | 0.0 | 0.00 | 0.00 | 0.00 | 71 | 1017.6 |
| 20260509151110 | 54 | 68 | 0.0 | 0.0 | 0.00 | 0.00 | 0.00 | 72 | 1017.7 |
| 20260509150110 | 54 | 68 | 0.0 | 1.0 | 0.00 | 0.00 | 0.00 | 70 | 1017.8 |
| 20260509145110 | 54 | 68 | 0.0 | 0.0 | 0.00 | 0.00 | 0.00 | 70 | 1017.7 |
| 20260509143110 | 54 | 68 | 0.0 | 4.0 | 0.00 | 0.00 | 0.00 | 70 | 1017.8 |
| 20260509142110 | 54 | 68 | 0.0 | 0.0 | 0.00 | 0.00 | 0.00 | 70 | 1017.9 |
| 20260509141110 | 53 | 68 | 0.0 | 0.0 | 0.00 | 0.00 | 0.00 | 69 | 1017.9 |
| 20260509140110 | 53 | 68 | 0.0 | 0.0 | 0.00 | 0.00 | 0.00 | 69 | 1017.9 |
| 20260509135110 | 53 | 67 | 0.0 | 0.0 | 0.00 | 0.00 | 0.00 | 69 | 1017.9 |
| 20260509134110 | 53 | 68 | 0.0 | 0.0 | 0.00 | 0.00 | 0.00 | 71 | 1018.0 |
| 20260509133110 | 53 | 68 | 2.0 | 5.0 | 0.00 | 0.00 | 0.00 | 69 | 1017.9 |
| 20260509132110 | 53 | 65 | 0.0 | 0.0 | 0.00 | 0.00 | 0.00 | 69 | 1017.9 |
| 20260509131110 | 53 | 65 | 0.0 | 0.0 | 0.00 | 0.00 | 0.00 | 69 | 1018.1 |
| 20260509124114 | 53 | 61 | 1.0 | 5.0 | 0.00 | 0.00 | 0.00 | 69 | 1018.3 |
| 20260509123114 | 53 | 57 | 0.0 | 4.0 | 0.00 | 0.00 | 0.00 | 69 | 1018.5 |
| 20260509122114 | 53 | 46 | 1.0 | 5.0 | 0.00 | 0.00 | 0.00 | 68 | 1018.5 |
| 20260509120113 | 53 | 48 | 0.0 | 1.0 | 0.00 | 0.00 | 0.00 | 70 | 1018.5 |
| 20260509115113 | 53 | 48 | 0.0 | 0.0 | 0.00 | 0.00 | 0.00 | 68 | 1018.5 |
| 20260509112113 | 53 | 45 | 0.0 | 4.0 | 0.00 | 0.00 | 0.00 | 68 | 1018.5 |
| 20260509111113 | 53 | 44 | 0.0 | 0.0 | 0.00 | 0.00 | 0.00 | 68 | 1018.6 |
| 20260509110113 | 52 | 44 | 0.0 | 1.0 | 0.00 | 0.00 | 0.00 | 69 | 1018.6 |
| 20260509101113 | 52 | 20 | 0.0 | 0.0 | 0.00 | 0.00 | 0.00 | 73 | 1018.7 |
| 20260509095113 | 51 | 20 | 0.0 | 1.0 | 0.00 | 0.00 | 0.00 | 72 | 1018.5 |
| 20260509094113 | 51 | 20 | 0.0 | 0.0 | 0.00 | 0.00 | 0.00 | 69 | 1018.5 |
| 20260509093113 | 51 | 20 | 0.0 | 0.0 | 0.00 | 0.00 | 0.00 | 71 | 1018.6 |
| 20260509091113 | 51 | 20 | 0.0 | 4.0 | 0.00 | 0.00 | 0.00 | 71 | 1018.3 |
| 20260509085112 | 51 | 19 | 0.0 | 1.0 | 0.00 | 0.00 | 0.00 | 71 | 1018.4 |
| 20260509084112 | 51 | 19 | 0.0 | 0.0 | 0.00 | 0.00 | 0.00 | 72 | 1018.5 |
| 20260509082112 | 50 | 19 | 0.0 | 2.0 | 0.00 | 0.00 | 0.00 | 78 | 1018.3 |
| 20260509081112 | 50 | 18 | 1.0 | 5.0 | 0.00 | 0.00 | 0.00 | 82 | 1018.3 |
| 20260509080112 | 50 | 18 | 0.0 | 1.0 | 0.00 | 0.00 | 0.00 | 83 | 1018.3 |
| 20260509073112 | 49 | 58 | 0.0 | 4.0 | 0.00 | 0.00 | 0.00 | 86 | 1018.3 |
| 20260509072112 | 49 | 59 | 2.0 | 0.0 | 0.00 | 0.00 | 0.00 | 88 | 1018.3 |
| 20260509071112 | 48 | 59 | 1.0 | 5.0 | 0.00 | 0.00 | 0.00 | 89 | 1018.4 |